Location: San Antonio
(29.4240°N, 98.4930°W)
Time: 08:16:33
(UTC-05:00)

Envisat - Pass Details

Date: 25 June 2024
Orbit: 762 x 764 km, 98.3° (Epoch: 12 July)

Event Time Altitude Azimuth Distance (km) Brightness Sun altitude
Rises 05:51:02 0° 350° (N) 3,226 6.6 -9.3°
Reaches altitude 10° 05:54:05 10° 331° (NNW) 2,297 5.5 -8.7°
Maximum altitude 05:57:16 17° 292° (WNW) 1,853 4.7 -8.1°
Drops below altitude 10° 06:00:26 10° 252° (WSW) 2,290 4.8 -7.6°
Enters shadow 06:00:55 - 248° (WSW) 2,413 4.9 -7.5°
